Regional Weather Roundup
Issued by NWS Cleveland, OH

Home | Current Version | Previous Version | Text Only | Print | Product List | Glossary Off
Versions: 1 2 3 4 5 6 7 8 9 10 11 12 13 14 15 16 17 18 19 20 21 22 23 24 25 26 27 28 29 30 31 32 33 34 35 36 37 38 39 40 41 42 43 44 45 46 47 48 49 50

477
ASUS41 KCLE 192000
RWRCLE
OHIO REGIONAL WEATHER ROUNDUP
NATIONAL WEATHER SERVICE WILMINGTON, OH
400 PM EDT SAT AUG 19 2017

NOTE: "FAIR" INDICATES FEW OR NO CLOUDS BELOW 12,000 FEET WITH NO
SIGNIFICANT WEATHER AND/OR OBSTRUCTIONS TO VISIBILITY.

OHZ001>008-015>018-024>027-034-035-043-044-192100-
   NORTHWEST OHIO

CITY           SKY/WX    TMP DP  RH WIND       PRES   REMARKS
DEFIANCE       FAIR      79  59  50 NW6       29.94F
FINDLAY        FAIR      83  58  42 W8        29.93S
TOLEDO EXPRESS FAIR      80  58  46 NW12      29.93S
TOLEDO EXEC    FAIR      82  60  47 NW10      29.93S
LIMA           FAIR      80  58  46 W8        29.95F
$$

OHZ009>014-019>023-028>033-038-089-192100-
   NORTHEAST OHIO

CITY           SKY/WX    TMP DP  RH WIND       PRES   REMARKS
CLE-HOPKINS    FAIR      82  60  47 W15G22    29.93F
CLE-LAKEFRONT  FAIR      76  65  68 W8        29.91S
CUY CO. ARPT   PTSUNNY   77  64  65 W15       29.93S
LORAIN-ELYRIA  FAIR      77  60  55 NW8       29.93F
ASHTABULA      FAIR      75  64  68 NW8       29.92F
AKRON-CANTON   PTSUNNY   82  60  47 NW10      29.93R
WOOSTER        NOT AVBL
MANSFIELD      FAIR      80  60  50 W12       29.95S
YOUNGSTOWN     PTSUNNY   76  61  59 NW9       29.92S
$$

OHZ042-051>053-060>062-070>072-077>081-192100-
  SOUTHWEST OHIO

CITY           SKY/WX    TMP DP  RH WIND       PRES   REMARKS
CINC-COVINGTON FAIR      87  67  51 W10       29.94F HX  90
CINC-LUNKEN    PTSUNNY   87  69  54 SW10      29.93F HX  91
HAMILTON       FAIR      86  69  56 W6        29.94F HX  90
DAYTON         NOT AVBL
WRIGHT-PAT AFB NOT AVBL
DAYTON GENERAL PTSUNNY   84  65  52 W7        29.94F
WILMINGTON     FAIR      85  67  54 W10G17    29.95F
$$

OHZ036-037-039>041-045>050-054>059-063>069-073>076-082>088-192100-
  CENTRAL AND SOUTHEAST OHIO

CITY           SKY/WX    TMP DP  RH WIND       PRES   REMARKS
COLUMBUS       PTSUNNY   85  65  51 SW16G23   29.92S
OSU AIRPORT    PTSUNNY   84  68  58 W13       29.92F
BOLTON FIELD   PTSUNNY   82  66  57 W14       29.94F
RICKENBACK AFB NOT AVBL
NEWARK         TSTM      73  65  75 CALM      29.94R
MARION         FAIR      79  60  52 NW13      29.95R
LANCASTER      FAIR      86  67  52 W12       29.93F
ZANESVILLE     FAIR      83  60  45 NW21G28   29.94R
NEW PHILLY     PTSUNNY   71  66  84 E3        29.95R
$$




USA.gov is the U.S. government's official web portal to all federal, state and local government web resources and services.